Weather History for Palm Springs, CA

Change the Weather History Date:

Thursday, February 27, 2014

  Actual Average Record
Temperature  
Mean Temperature 71 °F 62 °F  
Max Temperature 83 °F 75 °F 99 °F (1986)
Min Temperature 58 °F 50 °F 32 °F (1939)
Degree Days  
Heating Degree Days 0 4  
Month to date heating degree days 59 149  
Since 1 July heating degree days 410 776  
Cooling Degree Days 6 1  
Month to date cooling degree days 71 26  
Year to date cooling degree days 108 34  
Growing Degree Days 20 (Base 50)    
Moisture  
Dew Point 39 °F    
Average Humidity 37    
Maximum Humidity 62    
Minimum Humidity 11    
Precipitation  
Precipitation T in 0.03 in 0.58 in (2001)
Month to date precipitation T 0.99  
Year to date precipitation T 1.99  
Since 1 July precipitation 1.26 4.79  
Snow  
Snow 0.00 in - - ()
Month to date snowfall 0.0  
Year to date snowfall 0.0  
Since 1 July snowfall 0.0  
Snow Depth 0.00 in    
Sea Level Pressure  
Sea Level Pressure 29.85 in    
Wind  
Wind Speed 5 mph (North)    
Max Wind Speed 23 mph    
Max Gust Speed 27 mph    
Visibility 10 miles    
Events      
T = Trace of Precipitation, MM = Missing Value Source: NWS Daily Summary

Daily Weather History Graph

Daily Weather History Graph

Search for Another Location

Airport:

Trip Planner

Search our weather history database for the weather conditions in past years. The results will help you decide how hot, cold, wet, or windy it might be!

Date:

Astronomy

Feb. 27, 2014 Rise Set
Actual Time 6:16 AM PST 5:40 PM PST
Civil Twilight 5:51 AM PST 6:06 PM PST
Nautical Twilight 5:22 AM PST 6:35 PM PST
Astronomical Twilight 4:53 AM PST 7:03 PM PST
Moon 4:49 AM PST (2/27) 4:14 PM PST (2/27)
Length of Visible Light 12h 14m
Length of Day
11h 24m
Waning Crescent, 3% of the Moon is Illuminated
Feb 27
Waning Crescent
Mar 1
New
Mar 8
First Quarter
Mar 16
Full
Mar 23
Last Quarter

Hourly Weather History & Observations

Time (PST) Temp. Dew Point Humidity Pressure Visibility Wind Dir Wind Speed Gust Speed Precip Events Conditions
12:53 AM 61.0 °F 44.1 °F 54% 29.93 in 10.0 mi Calm Calm - N/A   Overcast
1:53 AM 61.0 °F 45.0 °F 56% 29.91 in 10.0 mi East 3.5 mph - N/A   Overcast
2:53 AM 59.0 °F 45.0 °F 60% 29.89 in 10.0 mi SSE 4.6 mph - N/A   Mostly Cloudy
3:53 AM 59.0 °F 45.0 °F 60% 29.89 in 10.0 mi South 3.5 mph - N/A   Mostly Cloudy
4:53 AM 59.0 °F 46.0 °F 62% 29.91 in 10.0 mi SW 3.5 mph - N/A   Mostly Cloudy
5:53 AM 59.0 °F 46.0 °F 62% 29.91 in 10.0 mi Calm Calm - 0.00 in   Scattered Clouds
6:53 AM 60.1 °F 46.9 °F 62% 29.92 in 10.0 mi Calm Calm - N/A   Scattered Clouds
7:53 AM 64.0 °F 48.0 °F 56% 29.94 in 10.0 mi South 3.5 mph - N/A   Scattered Clouds
8:53 AM 69.1 °F 48.0 °F 47% 29.95 in 10.0 mi Variable 3.5 mph - N/A   Clear
9:53 AM 73.0 °F 48.0 °F 41% 29.93 in 10.0 mi NNE 9.2 mph - N/A   Clear
10:53 AM 75.0 °F 39.0 °F 27% 29.89 in 10.0 mi ENE 15.0 mph - N/A   Clear
11:53 AM 79.0 °F 33.1 °F 19% 29.85 in 10.0 mi ENE 12.7 mph - N/A   Scattered Clouds
12:53 PM 80.1 °F 27.0 °F 14% 29.81 in 10.0 mi North - - N/A   Scattered Clouds
1:53 PM 81.0 °F 24.1 °F 12% 29.78 in 10.0 mi ENE 8.1 mph 17.3 mph N/A   Clear
2:53 PM 82.0 °F 23.0 °F 11% 29.78 in 10.0 mi North - - N/A   Scattered Clouds
3:53 PM 82.0 °F 21.9 °F 11% 29.78 in 10.0 mi NNW 4.6 mph - N/A   Clear
4:53 PM 78.1 °F 28.0 °F 16% 29.76 in 10.0 mi NW 18.4 mph 28.8 mph N/A   Scattered Clouds
5:53 PM 75.9 °F 25.0 °F 15% 29.78 in 10.0 mi East 8.1 mph - N/A   Scattered Clouds
6:53 PM 73.9 °F 34.0 °F 23% 29.80 in 10.0 mi West 6.9 mph - N/A   Clear
7:53 PM 70.0 °F 43.0 °F 38% 29.81 in 10.0 mi NW 16.1 mph - N/A   Clear
8:53 PM 68.0 °F 46.0 °F 45% 29.82 in 10.0 mi NW 16.1 mph - N/A   Clear
9:53 PM 68.0 °F 45.0 °F 43% 29.81 in 10.0 mi NW 15.0 mph - N/A   Clear
10:53 PM 66.9 °F 45.0 °F 45% 29.82 in 10.0 mi WNW 9.2 mph - N/A   Clear
11:53 PM 66.0 °F 46.0 °F 48% 29.83 in 10.0 mi Calm Calm - N/A   Mostly Cloudy